Flag for Comoros Weather past 2 weeks in Moroni, Comoros

Now
70 °F

Passing clouds.


Feels Like: 70 °F
Forecast: 74 / 82 °F
Wind: 9 mph from Southeast

Location: Hahaya International Airport

Current Time: Aug 2, 2014 at 5:36:26 AM

Latest Report: Aug 2, 2014 at 5:00 AM


Visibility: N/A

Pressure: 30.04 "Hg

Humidity: 78%

Dew point: 63 °F

Location of MoroniLocation

Historic Weather in Moroni — Graph

°F

Moroni temperature yesterday

Maximum temperature yesterday: 86 °F (at 2:00 PM)
Minimum temperature yesterday: 66 °F (at 2:00 AM)
Average temperature yesterday: 78 °F

Past Weeks' High & Low Weather Summary

 TemperatureHumidityPressure
High88 °F (Jul 25, 2:00 PM)100% (Jul 26, 10:00 PM)30.18 "Hg (Jul 26, 10:00 PM)
Low66 °F (Jul 23, 2:00 AM)52% (Jul 18, 11:00 AM)29.98 "Hg (Jul 18, 4:00 PM)
Average78 °F76%30.06 "Hg
* Reported Jul 18 6:00 AM — Aug 2 4:00 AM, Moroni, Weather by CustomWeather, © 2014

Note: Actual official high and low records may vary slightly from our data, if they occured in-between our weather recording intervals... More about our weather records

Advertising

Moroni weather history for previous 24 hours

 ConditionsComfort  
Time TempWeatherWind HumidityBarometerVisibility
4:00 AM
Aug 2
70 °FPassing clouds.3 mph78%30.04 "HgN/A
3:00 AM72 °FPassing clouds.5 mph73%30.04 "HgN/A
2:00 AM72 °FPassing clouds.3 mph73%30.07 "HgN/A
1:00 AM73 °FPassing clouds.3 mph78%30.09 "HgN/A
12:00 AM73 °FPassing clouds.5 mph74%30.09 "HgN/A
11:00 PM
Aug 1
73 °FPassing clouds.No wind78%30.07 "HgN/A
10:00 PM73 °FPassing clouds.5 mph83%30.09 "HgN/A
9:00 PM75 °FPassing clouds.1 mph83%30.09 "HgN/A
8:00 PM77 °FPassing clouds.3 mph79%30.07 "HgN/A
7:00 PM77 °FPassing clouds.10 mph79%30.07 "HgN/A
6:00 PM79 °FPassing clouds.14 mph74%30.04 "HgN/A
5:00 PM81 °FPassing clouds.15 mph66%30.04 "HgN/A
4:00 PM82 °FScattered clouds.10 mph62%30.04 "HgN/A
3:00 PM84 °FScattered clouds.13 mph58%30.04 "HgN/A
2:00 PM86 °FScattered clouds.10 mph55%30.04 "HgN/A
1:00 PM84 °FScattered clouds.13 mph62%30.04 "HgN/A
12:00 PM84 °FScattered clouds.5 mph62%30.04 "HgN/A
11:00 AM84 °FScattered clouds.5 mph62%30.04 "HgN/A
10:00 AM82 °FScattered clouds.18 mph62%30.04 "HgN/A
9:00 AM79 °FPassing clouds.5 mph79%30.07 "HgN/A
8:00 AM75 °FPassing clouds.No wind89%30.07 "HgN/A
7:00 AM70 °FPassing clouds.3 mph100%30.07 "HgN/A
6:00 AM70 °FPassing clouds.2 mph100%30.07 "HgN/A
Weather by CustomWeather, © 2014

See weather overviewHow to use our weather pages